^^
Station Historical Data
Daily Summary for January 2, 2018 Units:  English    Metric   Both
« Previous Day
Next Day »
Daily Weekly Monthly Yearly Custom
  High: Low: Average:
Temperature: 93.6 °F 62.2 °F 77.9 °F
Dew Point: 33.3 °F 20.8 °F 28.2 °F
Humidity: 27% 9% 17%
Wind Speed: 12.1mph 0.0mph 2.4mph
Wind Gust: 14.0mph - -
Wind- - SE
Pressure: 30.18 in 30.05 in -
Precipitation: 0.00 in    
Historical Graphs
 
 
Tabular Data for January 2, 2018
Time Temperature Dew Point Pressure Wind Wind Speed Wind Gust Humidity Rainfall Rate (Hourly) solar Conditions
00:00 71.6 °F 30.7 °F 30.14 in SW 2.9 mph 5.0 mph 22% 0.00 in 0.0 W/m2
00:03 71.6 °F 30.7 °F 30.14 in SSE 0.9 mph 2.0 mph 22% 0.00 in 0.0 W/m2
00:08 71.8 °F 32.0 °F 30.14 in Calm   4.0 mph 23% 0.00 in 0.0 W/m2
00:13 71.8 °F 32.0 °F 30.14 in Calm   1.0 mph 23% 0.00 in 0.0 W/m2
00:19 71.4 °F 31.6 °F 30.13 in Calm     23% 0.00 in 0.0 W/m2
00:24 71.4 °F 31.6 °F 30.13 in Calm   1.0 mph 23% 0.00 in 0.0 W/m2
00:26 71.2 °F 31.5 °F 30.13 in Calm   1.0 mph 23% 0.00 in 0.0 W/m2
00:29 71.1 °F 31.5 °F 30.13 in Calm     23% 0.00 in 0.0 W/m2
00:34 70.9 °F 32.4 °F 30.13 in Calm   1.0 mph 24% 0.00 in 0.0 W/m2
00:39 70.7 °F 32.2 °F 30.13 in Calm   5.0 mph 24% 0.00 in 0.0 W/m2
00:43 70.5 °F 33.1 °F 30.12 in South 2.0 mph 5.0 mph 25% 0.00 in 0.0 W/m2
00:48 70.5 °F 33.1 °F 30.12 in East 6.0 mph 6.0 mph 25% 0.00 in 0.0 W/m2
00:53 70.9 °F 33.3 °F 30.12 in SSE 8.1 mph 8.1 mph 25% 0.00 in 0.0 W/m2
00:59 70.9 °F 32.4 °F 30.12 in SSE 0.9 mph 7.0 mph 24% 0.00 in 0.0 W/m2
01:05 70.9 °F 32.4 °F 30.12 in ESE 2.9 mph 7.0 mph 24% 0.00 in 0.0 W/m2
01:08 71.1 °F 32.4 °F 30.12 in ESE 0.9 mph 8.0 mph 24% 0.00 in 0.0 W/m2
01:13 71.1 °F 32.4 °F 30.11 in ESE 2.9 mph 5.0 mph 24% 0.00 in 0.0 W/m2
01:18 71.1 °F 32.4 °F 30.11 in SE 2.9 mph 14.0 mph 24% 0.00 in 0.0 W/m2
01:24 70.9 °F 32.4 °F 30.11 in SE 4.0 mph 5.0 mph 24% 0.00 in 0.0 W/m2
01:25 70.9 °F 32.4 °F 30.11 in ESE 2.0 mph 5.0 mph 24% 0.00 in 0.0 W/m2
01:28 71.1 °F 32.4 °F 30.11 in SE 2.0 mph 4.0 mph 24% 0.00 in 0.0 W/m2
01:34 70.9 °F 32.4 °F 30.11 in SSE 6.9 mph 11.0 mph 24% 0.00 in 0.0 W/m2
01:39 70.9 °F 32.4 °F 30.11 in SSE 12.1 mph 13.0 mph 24% 0.00 in 0.0 W/m2
01:44 70.9 °F 32.4 °F 30.11 in SSE 4.0 mph 8.0 mph 24% 0.00 in 0.0 W/m2
01:49 70.9 °F 32.4 °F 30.11 in SE 4.9 mph 5.0 mph 24% 0.00 in 0.0 W/m2
01:55 70.5 °F 32.0 °F 30.11 in Calm   5.0 mph 24% 0.00 in 0.0 W/m2
01:58 70.5 °F 32.0 °F 30.11 in ESE 4.0 mph 5.0 mph 24% 0.00 in 0.0 W/m2
02:03 70.3 °F 31.8 °F 30.10 in SE 0.9 mph 5.0 mph 24% 0.00 in 0.0 W/m2
02:08 70.2 °F 31.6 °F 30.11 in WSW 4.0 mph 4.0 mph 24% 0.00 in 0.0 W/m2
02:14 70.2 °F 31.6 °F 30.10 in SE 6.9 mph 8.0 mph 24% 0.00 in 0.0 W/m2
02:20 70.2 °F 30.6 °F 30.10 in ESE 2.0 mph 8.0 mph 23% 0.00 in 0.0 W/m2
02:24 70.2 °F 30.6 °F 30.10 in Calm   3.0 mph 23% 0.00 in 0.0 W/m2
02:29 70.0 °F 30.6 °F 30.10 in Calm   2.0 mph 23% 0.00 in 0.0 W/m2
02:34 69.8 °F 31.5 °F 30.10 in Calm   4.0 mph 24% 0.00 in 0.0 W/m2
02:39 69.6 °F 31.3 °F 30.10 in Calm   2.0 mph 24% 0.00 in 0.0 W/m2
02:46 69.4 °F 31.1 °F 30.10 in Calm     24% 0.00 in 0.0 W/m2
02:51 69.3 °F 30.9 °F 30.10 in Calm   2.0 mph 24% 0.00 in 0.0 W/m2
02:56 68.9 °F 30.6 °F 30.10 in NNE 2.9 mph 5.0 mph 24% 0.00 in 0.0 W/m2
03:01 68.7 °F 30.4 °F 30.09 in NNE 0.9 mph 2.0 mph 24% 0.00 in 0.0 W/m2
03:06 68.5 °F 30.4 °F 30.09 in Calm   3.0 mph 24% 0.00 in 0.0 W/m2
03:11 68.4 °F 30.2 °F 30.10 in East 2.9 mph 5.0 mph 24% 0.00 in 0.0 W/m2
03:15 68.2 °F 30.0 °F 30.10 in ENE 2.9 mph 3.0 mph 24% 0.00 in 0.0 W/m2
03:20 68.0 °F 29.8 °F 30.10 in NNE 0.9 mph 3.0 mph 24% 0.00 in 0.0 W/m2
03:21 68.0 °F 29.8 °F 30.10 in Calm   1.0 mph 24% 0.00 in 0.0 W/m2
03:26 67.8 °F 29.7 °F 30.10 in SE 0.9 mph 3.0 mph 24% 0.00 in 0.0 W/m2
03:29 67.6 °F 29.5 °F 30.10 in SE 2.0 mph 5.0 mph 24% 0.00 in 0.0 W/m2
03:35 67.5 °F 29.5 °F 30.09 in East 2.0 mph 3.0 mph 24% 0.00 in 0.0 W/m2
03:40 67.3 °F 30.2 °F 30.10 in SSE 2.0 mph 3.0 mph 25% 0.00 in 0.0 W/m2
03:45 67.3 °F 29.3 °F 30.09 in SE 0.9 mph 3.0 mph 24% 0.00 in 0.0 W/m2
03:50 67.3 °F 30.2 °F 30.10 in Calm   1.0 mph 25% 0.00 in 0.0 W/m2
03:55 66.9 °F 30.0 °F 30.09 in Calm   2.0 mph 25% 0.00 in 0.0 W/m2
03:56 66.9 °F 30.0 °F 30.09 in Calm   1.0 mph 25% 0.00 in 0.0 W/m2
04:05 66.4 °F 29.5 °F 30.10 in Calm   1.0 mph 25% 0.00 in 0.0 W/m2
04:21 65.5 °F 27.7 °F 30.10 in Calm   3.0 mph 24% 0.00 in 0.0 W/m2
04:26 65.5 °F 27.7 °F 30.10 in East 2.0 mph 3.0 mph 24% 0.00 in 0.0 W/m2
04:29 65.3 °F 27.5 °F 30.10 in ENE 2.9 mph 3.0 mph 24% 0.00 in 0.0 W/m2
04:34 65.1 °F 26.4 °F 30.10 in East 0.9 mph 5.0 mph 23% 0.00 in 0.0 W/m2
04:44 64.9 °F 26.2 °F 30.10 in Calm   2.0 mph 23% 0.00 in 0.0 W/m2
04:49 64.9 °F 26.2 °F 30.10 in East 2.0 mph 5.0 mph 23% 0.00 in 0.0 W/m2
05:00 64.9 °F 26.2 °F 30.10 in Calm   2.0 mph 23% 0.00 in 0.0 W/m2
05:06 64.9 °F 27.3 °F 30.10 in Calm   3.0 mph 24% 0.00 in 0.0 W/m2
05:20 64.8 °F 27.1 °F 30.11 in Calm   2.0 mph 24% 0.00 in 0.0 W/m2
05:25 64.2 °F 26.6 °F 30.11 in ESE 0.9 mph 6.0 mph 24% 0.00 in 0.0 W/m2
05:30 64.0 °F 26.6 °F 30.11 in ENE 2.9 mph 4.0 mph 24% 0.00 in 0.0 W/m2
05:45 63.5 °F 27.0 °F 30.11 in Calm   3.0 mph 25% 0.00 in 0.0 W/m2
05:50 63.3 °F 27.0 °F 30.11 in ENE 2.0 mph 3.0 mph 25% 0.00 in 0.0 W/m2
06:02 63.0 °F 26.6 °F 30.12 in Calm   4.0 mph 25% 0.00 in 0.0 W/m2
06:07 62.8 °F 26.4 °F 30.12 in East 0.9 mph 1.0 mph 25% 0.00 in 0.0 W/m2
06:10 62.8 °F 26.4 °F 30.12 in ENE 0.9 mph 5.0 mph 25% 0.00 in 0.0 W/m2
06:15 62.4 °F 26.1 °F 30.12 in ENE 2.0 mph 4.0 mph 25% 0.00 in 5.0 W/m2
06:20 62.4 °F 27.1 °F 30.12 in ESE 0.9 mph 3.0 mph 26% 0.00 in 7.0 W/m2
06:30 62.2 °F 27.0 °F 30.13 in ENE 0.9 mph 2.0 mph 26% 0.00 in 9.0 W/m2
06:33 62.2 °F 27.0 °F 30.13 in ENE 4.0 mph 4.0 mph 26% 0.00 in 11.0 W/m2
06:38 62.2 °F 27.0 °F 30.13 in ENE 2.9 mph 3.0 mph 26% 0.00 in 12.0 W/m2
06:43 62.2 °F 27.0 °F 30.13 in NE 2.9 mph 3.0 mph 26% 0.00 in 12.0 W/m2
06:50 62.2 °F 27.9 °F 30.13 in SE 0.9 mph 2.0 mph 27% 0.00 in 16.0 W/m2
06:55 62.2 °F 27.9 °F 30.14 in Calm   2.0 mph 27% 0.00 in 16.0 W/m2
07:00 62.4 °F 28.0 °F 30.14 in Calm   5.0 mph 27% 0.00 in 18.0 W/m2
07:05 62.8 °F 28.2 °F 30.14 in NE 0.9 mph 7.0 mph 27% 0.00 in 19.0 W/m2
07:15 63.3 °F 27.9 °F 30.15 in ESE 2.0 mph 4.0 mph 26% 0.00 in 21.0 W/m2
07:25 64.8 °F 27.1 °F 30.15 in NNE 4.0 mph 8.0 mph 24% 0.00 in 21.0 W/m2
07:30 65.7 °F 26.8 °F 30.15 in East 6.9 mph 7.0 mph 23% 0.00 in 23.0 W/m2
07:39 66.7 °F 26.6 °F 30.15 in SE 2.0 mph 5.0 mph 22% 0.00 in 25.0 W/m2
07:44 67.3 °F 27.1 °F 30.15 in ENE 2.0 mph 5.0 mph 22% 0.00 in 26.0 W/m2
07:47 67.6 °F 28.6 °F 30.15 in NE 0.9 mph 6.0 mph 23% 0.00 in 72.0 W/m2
07:52 67.8 °F 28.6 °F 30.15 in ESE 0.9 mph 5.0 mph 23% 0.00 in 359.0 W/m2
07:57 68.4 °F 28.0 °F 30.15 in ENE 0.9 mph 6.0 mph 22% 0.00 in 394.0 W/m2
08:02 69.3 °F 27.7 °F 30.15 in Calm   4.0 mph 21% 0.00 in 417.0 W/m2
08:08 70.3 °F 27.3 °F 30.15 in East 2.9 mph 7.0 mph 20% 0.00 in 438.0 W/m2
08:09 70.5 °F 27.5 °F 30.15 in East 6.0 mph 6.0 mph 20% 0.00 in 441.0 W/m2
08:14 71.4 °F 29.5 °F 30.15 in Calm   6.0 mph 21% 0.00 in 462.0 W/m2
08:19 72.3 °F 27.7 °F 30.15 in NE 4.0 mph 7.0 mph 19% 0.00 in 482.0 W/m2
08:24 73.2 °F 28.4 °F 30.15 in Calm   6.0 mph 19% 0.00 in 503.0 W/m2
08:34 74.5 °F 28.2 °F 30.15 in East 2.0 mph 5.0 mph 18% 0.00 in 543.0 W/m2
08:39 74.8 °F 29.8 °F 30.15 in East 4.0 mph 5.0 mph 19% 0.00 in 561.0 W/m2
08:44 75.4 °F 27.5 °F 30.16 in NE 4.9 mph 7.0 mph 17% 0.00 in 580.0 W/m2
08:55 75.7 °F 29.3 °F 30.16 in SSE 2.0 mph 2.0 mph 18% 0.00 in 621.0 W/m2
09:00 75.9 °F 29.3 °F 30.16 in East 2.0 mph 8.0 mph 18% 0.00 in 640.0 W/m2
09:17 76.6 °F 30.0 °F 30.16 in ESE 2.0 mph 5.0 mph 18% 0.00 in 696.0 W/m2
09:33 77.0 °F 30.2 °F 30.17 in ESE 0.9 mph 7.0 mph 18% 0.00 in 751.0 W/m2
09:38 77.5 °F 29.3 °F 30.17 in ENE 4.0 mph 5.0 mph 17% 0.00 in 768.0 W/m2
09:44 78.3 °F 29.8 °F 30.17 in NE 4.0 mph 8.0 mph 17% 0.00 in 788.0 W/m2
09:49 78.8 °F 28.8 °F 30.17 in ENE 0.9 mph 7.0 mph 16% 0.00 in 803.0 W/m2
09:54 79.2 °F 29.1 °F 30.17 in ESE 4.0 mph 7.0 mph 16% 0.00 in 819.0 W/m2
10:00 79.3 °F 29.3 °F 30.17 in South 2.9 mph 5.0 mph 16% 0.00 in 837.0 W/m2
10:10 79.9 °F 29.7 °F 30.17 in NE 4.9 mph 9.0 mph 16% 0.00 in 865.0 W/m2
10:15 79.9 °F 29.7 °F 30.17 in East 4.0 mph 11.0 mph 16% 0.00 in 879.0 W/m2
10:25 80.1 °F 28.2 °F 30.17 in NE 8.1 mph 13.0 mph 15% 0.00 in 902.0 W/m2
10:30 79.9 °F 29.7 °F 30.17 in NE 6.9 mph 13.0 mph 16% 0.00 in 914.0 W/m2
10:36 79.9 °F 28.0 °F 30.17 in NNE 6.9 mph 12.0 mph 15% 0.00 in 928.0 W/m2
10:41 79.9 °F 28.0 °F 30.17 in ENE 10.1 mph 10.1 mph 15% 0.00 in 940.0 W/m2
10:45 80.1 °F 29.8 °F 30.17 in ENE 4.9 mph 9.0 mph 16% 0.00 in 951.0 W/m2
10:50 80.4 °F 28.6 °F 30.17 in NE 6.0 mph 9.0 mph 15% 0.00 in 962.0 W/m2
10:55 80.8 °F 28.8 °F 30.18 in SSE 8.1 mph 8.1 mph 15% 0.00 in 972.0 W/m2
11:00 81.0 °F 28.9 °F 30.17 in ENE 8.1 mph 9.0 mph 15% 0.00 in 983.0 W/m2
11:05 81.7 °F 27.9 °F 30.18 in ESE 6.9 mph 9.0 mph 14% 0.00 in 993.0 W/m2
11:10 81.9 °F 28.0 °F 30.18 in ENE 4.9 mph 7.0 mph 14% 0.00 in 1002.0 W/m2
11:15 81.9 °F 28.0 °F 30.17 in NE 2.0 mph 12.0 mph 14% 0.00 in 1011.0 W/m2
11:20 81.7 °F 27.9 °F 30.17 in NNW 4.0 mph 11.0 mph 14% 0.00 in 1018.0 W/m2
11:25 82.0 °F 28.2 °F 30.17 in NE 4.9 mph 8.0 mph 14% 0.00 in 1027.0 W/m2
11:30 82.2 °F 28.2 °F 30.17 in NNE 2.0 mph 6.0 mph 14% 0.00 in 1035.0 W/m2
11:33 82.2 °F 28.2 °F 30.17 in NE 0.9 mph 9.0 mph 14% 0.00 in 1039.0 W/m2
11:38 82.9 °F 28.8 °F 30.17 in North 2.0 mph 8.0 mph 14% 0.00 in 1044.0 W/m2
11:43 83.5 °F 30.9 °F 30.17 in ESE 4.0 mph 8.0 mph 15% 0.00 in 1051.0 W/m2
11:45 83.5 °F 29.3 °F 30.17 in East 2.0 mph 8.0 mph 14% 0.00 in 1055.0 W/m2
11:51 83.3 °F 29.1 °F 30.17 in NNE 6.9 mph 9.0 mph 14% 0.00 in 1062.0 W/m2
11:57 83.8 °F 29.5 °F 30.17 in ENE 4.0 mph 8.0 mph 14% 0.00 in 1065.0 W/m2
12:01 84.0 °F 27.9 °F 30.17 in Calm   4.0 mph 13% 0.00 in 1069.0 W/m2
12:07 84.4 °F 30.0 °F 30.17 in ESE 4.9 mph 9.0 mph 14% 0.00 in 1074.0 W/m2
12:20 84.6 °F 28.4 °F 30.16 in NE 6.0 mph 10.0 mph 13% 0.00 in 1083.0 W/m2
12:23 84.9 °F 28.6 °F 30.16 in North 4.9 mph 7.0 mph 13% 0.00 in 1083.0 W/m2
12:29 85.1 °F 28.8 °F 30.16 in NNW 2.9 mph 10.0 mph 13% 0.00 in 1085.0 W/m2
12:34 85.3 °F 28.9 °F 30.16 in NE 6.0 mph 10.0 mph 13% 0.00 in 1088.0 W/m2
12:39 85.3 °F 28.9 °F 30.16 in WNW 2.9 mph 9.0 mph 13% 0.00 in 1090.0 W/m2
12:45 85.3 °F 28.9 °F 30.16 in East 4.0 mph 10.0 mph 13% 0.00 in 1092.0 W/m2
12:50 85.5 °F 28.9 °F 30.16 in East 2.9 mph 7.0 mph 13% 0.00 in 1079.0 W/m2
12:55 85.8 °F 29.3 °F 30.15 in Calm   5.0 mph 13% 0.00 in 1072.0 W/m2
13:01 86.0 °F 29.5 °F 30.15 in East 0.9 mph 9.0 mph 13% 0.00 in 1079.0 W/m2
13:07 86.5 °F 27.9 °F 30.15 in NNW 4.9 mph 10.0 mph 12% 0.00 in 1081.0 W/m2
13:09 86.7 °F 28.0 °F 30.15 in NE 0.9 mph 6.0 mph 12% 0.00 in 1085.0 W/m2
13:19 87.4 °F 28.6 °F 30.15 in Calm   5.0 mph 12% 0.00 in 1071.0 W/m2
13:25 87.8 °F 28.9 °F 30.15 in NNW 2.9 mph 7.0 mph 12% 0.00 in 1074.0 W/m2
13:30 88.2 °F 29.1 °F 30.15 in ENE 6.0 mph 6.0 mph 12% 0.00 in 1074.0 W/m2
13:46 89.2 °F 30.0 °F 30.14 in North 2.0 mph 5.0 mph 12% 0.00 in 1056.0 W/m2
13:51 89.2 °F 30.0 °F 30.14 in Calm   3.0 mph 12% 0.00 in 1053.0 W/m2
14:07 89.1 °F 27.7 °F 30.13 in WSW 0.9 mph 4.0 mph 11% 0.00 in 1039.0 W/m2
14:13 88.9 °F 27.5 °F 30.13 in North 2.9 mph 4.0 mph 11% 0.00 in 1030.0 W/m2
14:16 89.1 °F 27.7 °F 30.13 in WSW 2.9 mph 4.0 mph 11% 0.00 in 1023.0 W/m2
14:22 89.2 °F 27.9 °F 30.12 in SW 2.9 mph 9.0 mph 11% 0.00 in 1011.0 W/m2
14:26 88.7 °F 27.5 °F 30.12 in WSW 0.9 mph 7.0 mph 11% 0.00 in 1004.0 W/m2
14:31 87.8 °F 26.8 °F 30.12 in Calm   1.0 mph 11% 0.00 in 998.0 W/m2
14:32 87.8 °F 26.8 °F 30.12 in Calm   1.0 mph 11% 0.00 in 995.0 W/m2
14:37 88.2 °F 29.1 °F 30.12 in South 4.0 mph 4.0 mph 12% 0.00 in 986.0 W/m2
14:42 89.1 °F 27.7 °F 30.11 in ESE 4.0 mph 7.0 mph 11% 0.00 in 977.0 W/m2
14:47 89.4 °F 25.7 °F 30.12 in WNW 0.9 mph 3.0 mph 10% 0.00 in 967.0 W/m2
14:53 90.0 °F 26.1 °F 30.11 in NNE 2.9 mph 7.0 mph 10% 0.00 in 954.0 W/m2
15:04 89.4 °F 25.7 °F 30.10 in Calm   1.0 mph 10% 0.00 in 928.0 W/m2
15:09 90.0 °F 26.1 °F 30.10 in Calm   5.0 mph 10% 0.00 in 916.0 W/m2
15:11 90.3 °F 28.8 °F 30.10 in Calm   3.0 mph 11% 0.00 in 911.0 W/m2
15:19 91.6 °F 27.3 °F 30.10 in North 4.9 mph 5.0 mph 10% 0.00 in 891.0 W/m2
15:25 91.2 °F 27.1 °F 30.09 in NW 2.9 mph 7.0 mph 10% 0.00 in 877.0 W/m2
15:30 91.8 °F 29.8 °F 30.09 in West 4.9 mph 6.0 mph 11% 0.00 in 861.0 W/m2
15:35 92.1 °F 27.7 °F 30.09 in NNW 8.1 mph 9.0 mph 10% 0.00 in 847.0 W/m2
15:44 91.6 °F 27.3 °F 30.09 in NE 2.9 mph 5.0 mph 10% 0.00 in 817.0 W/m2
15:45 91.6 °F 27.3 °F 30.09 in Calm   5.0 mph 10% 0.00 in 816.0 W/m2
15:53 91.8 °F 27.5 °F 30.08 in SSE 4.9 mph 7.0 mph 10% 0.00 in 793.0 W/m2
16:00 92.1 °F 27.7 °F 30.08 in ENE 2.9 mph 6.0 mph 10% 0.00 in 777.0 W/m2
16:05 91.9 °F 25.0 °F 30.07 in Calm   2.0 mph 9% 0.00 in 759.0 W/m2
16:10 91.9 °F 27.7 °F 30.07 in Calm   1.0 mph 10% 0.00 in 744.0 W/m2
16:15 91.9 °F 30.0 °F 30.05 in East 10.1 mph 10.1 mph 11% 0.00 in 728.0 W/m2
16:19 92.7 °F 28.2 °F 30.07 in North 2.9 mph 5.0 mph 10% 0.00 in 724.0 W/m2
16:24 93.4 °F 28.8 °F 30.07 in WNW 2.0 mph 2.0 mph 10% 0.00 in 719.0 W/m2
16:29 93.6 °F 28.8 °F 30.07 in Calm   13.0 mph 10% 0.00 in 722.0 W/m2
16:34 93.2 °F 26.1 °F 30.07 in Calm   3.0 mph 9% 0.00 in 719.0 W/m2
16:39 92.7 °F 28.2 °F 30.06 in SW 2.0 mph 7.0 mph 10% 0.00 in 707.0 W/m2
16:44 91.9 °F 27.7 °F 30.06 in NW 6.0 mph 7.0 mph 10% 0.00 in 83.0 W/m2
16:49 90.7 °F 26.6 °F 30.06 in North 2.9 mph 5.0 mph 10% 0.00 in 77.0 W/m2
16:54 90.1 °F 26.2 °F 30.05 in NE 0.9 mph 4.0 mph 10% 0.00 in 612.0 W/m2
16:58 90.1 °F 26.2 °F 30.05 in NW 4.0 mph 8.0 mph 10% 0.00 in 654.0 W/m2
17:08 90.0 °F 28.4 °F 30.05 in Calm   2.0 mph 11% 0.00 in 93.0 W/m2
17:13 89.6 °F 30.2 °F 30.05 in Calm   1.0 mph 12% 0.00 in 90.0 W/m2
17:18 89.1 °F 27.7 °F 30.05 in Calm   1.0 mph 11% 0.00 in 111.0 W/m2
17:23 88.7 °F 29.7 °F 30.05 in WSW 2.0 mph 4.0 mph 12% 0.00 in 100.0 W/m2
17:33 88.7 °F 27.5 °F 30.05 in North 0.9 mph 3.0 mph 11% 0.00 in 155.0 W/m2
17:38 89.1 °F 27.7 °F 30.05 in Calm   2.0 mph 11% 0.00 in 109.0 W/m2
17:43 88.9 °F 27.5 °F 30.05 in Calm   3.0 mph 11% 0.00 in 123.0 W/m2
17:49 88.3 °F 29.3 °F 30.05 in Calm     12% 0.00 in 100.0 W/m2
17:55 88.0 °F 28.9 °F 30.05 in WSW 2.9 mph 4.0 mph 12% 0.00 in 102.0 W/m2
17:59 87.6 °F 28.8 °F 30.05 in WSW 2.9 mph 4.0 mph 12% 0.00 in 98.0 W/m2
18:04 87.3 °F 28.4 °F 30.05 in Calm   1.0 mph 12% 0.00 in 86.0 W/m2
18:06 87.3 °F 28.4 °F 30.05 in Calm   3.0 mph 12% 0.00 in 81.0 W/m2
18:12 86.9 °F 30.2 °F 30.05 in SSW 2.0 mph 4.0 mph 13% 0.00 in 70.0 W/m2
18:17 86.7 °F 28.0 °F 30.05 in South 0.9 mph 3.0 mph 12% 0.00 in 69.0 W/m2
18:25 86.4 °F 27.7 °F 30.05 in SE 2.9 mph 8.0 mph 12% 0.00 in 83.0 W/m2
18:30 86.2 °F 29.7 °F 30.06 in Calm   6.0 mph 13% 0.00 in 76.0 W/m2
18:34 86.2 °F 27.7 °F 30.06 in SSW 0.9 mph 3.0 mph 12% 0.00 in 65.0 W/m2
18:39 86.2 °F 27.7 °F 30.06 in Calm   4.0 mph 12% 0.00 in 60.0 W/m2
18:44 86.2 °F 27.7 °F 30.06 in SE 4.0 mph 5.0 mph 12% 0.00 in 70.0 W/m2
18:49 86.2 °F 27.7 °F 30.06 in Calm   6.0 mph 12% 0.00 in 54.0 W/m2
18:51 86.2 °F 27.7 °F 30.06 in SE 2.9 mph 4.0 mph 12% 0.00 in 54.0 W/m2
19:02 86.4 °F 29.7 °F 30.06 in SSE 2.0 mph 2.0 mph 13% 0.00 in 49.0 W/m2
19:08 86.2 °F 27.7 °F 30.07 in South 4.9 mph 8.0 mph 12% 0.00 in 33.0 W/m2
19:19 85.3 °F 27.0 °F 30.07 in Calm   3.0 mph 12% 0.00 in 25.0 W/m2
19:24 84.9 °F 26.6 °F 30.07 in South 2.9 mph 3.0 mph 12% 0.00 in 19.0 W/m2
19:29 84.7 °F 28.4 °F 30.07 in SE 2.9 mph 4.0 mph 13% 0.00 in 14.0 W/m2
19:38 84.2 °F 28.0 °F 30.08 in SSE 2.9 mph 7.0 mph 13% 0.00 in 5.0 W/m2
19:43 83.8 °F 27.7 °F 30.08 in SSE 4.0 mph 5.0 mph 13% 0.00 in 0.0 W/m2
19:49 83.5 °F 27.5 °F 30.08 in SE 4.0 mph 7.0 mph 13% 0.00 in 0.0 W/m2
19:54 83.1 °F 27.1 °F 30.09 in SSE 2.9 mph 8.0 mph 13% 0.00 in 0.0 W/m2
20:05 82.6 °F 26.8 °F 30.09 in SE 6.0 mph 7.0 mph 13% 0.00 in 0.0 W/m2
20:09 82.4 °F 26.6 °F 30.09 in SE 8.9 mph 9.0 mph 13% 0.00 in 0.0 W/m2
20:14 82.2 °F 26.4 °F 30.09 in SE 6.9 mph 8.0 mph 13% 0.00 in 0.0 W/m2
20:19 82.0 °F 26.4 °F 30.10 in ESE 6.0 mph 6.0 mph 13% 0.00 in 0.0 W/m2
20:24 81.7 °F 26.1 °F 30.10 in SE 4.0 mph 7.0 mph 13% 0.00 in 0.0 W/m2
20:30 81.5 °F 25.9 °F 30.10 in ESE 2.0 mph 6.0 mph 13% 0.00 in 0.0 W/m2
20:35 81.1 °F 25.7 °F 30.10 in SE 2.9 mph 8.0 mph 13% 0.00 in 0.0 W/m2
20:40 81.0 °F 27.3 °F 30.11 in East 2.0 mph 6.0 mph 14% 0.00 in 0.0 W/m2
20:46 80.6 °F 27.0 °F 30.11 in ESE 0.9 mph 8.0 mph 14% 0.00 in 0.0 W/m2
20:51 80.2 °F 26.8 °F 30.11 in ENE 4.9 mph 5.0 mph 14% 0.00 in 0.0 W/m2
20:56 80.1 °F 26.6 °F 30.11 in SE 0.9 mph 8.0 mph 14% 0.00 in 0.0 W/m2
20:57 80.1 °F 26.6 °F 30.11 in SE 2.9 mph 9.0 mph 14% 0.00 in 0.0 W/m2
21:02 79.9 °F 26.4 °F 30.11 in ESE 2.9 mph 7.0 mph 14% 0.00 in 0.0 W/m2
21:08 79.5 °F 26.1 °F 30.12 in South 2.0 mph 5.0 mph 14% 0.00 in 0.0 W/m2
21:09 79.5 °F 26.1 °F 30.12 in ESE 2.9 mph 5.0 mph 14% 0.00 in 0.0 W/m2
21:15 79.2 °F 25.9 °F 30.12 in ESE 2.0 mph 7.0 mph 14% 0.00 in 0.0 W/m2
21:20 79.0 °F 25.7 °F 30.12 in SE 2.0 mph 7.0 mph 14% 0.00 in 0.0 W/m2
21:25 79.0 °F 25.7 °F 30.12 in South 0.9 mph 6.0 mph 14% 0.00 in 0.0 W/m2
21:37 78.6 °F 25.5 °F 30.13 in Calm   3.0 mph 14% 0.00 in 0.0 W/m2
21:52 78.1 °F 26.6 °F 30.14 in Calm   1.0 mph 15% 0.00 in 0.0 W/m2
21:58 77.9 °F 26.6 °F 30.14 in Calm   1.0 mph 15% 0.00 in 0.0 W/m2
22:01 77.7 °F 26.4 °F 30.15 in Calm   2.0 mph 15% 0.00 in 0.0 W/m2
22:07 77.5 °F 26.2 °F 30.15 in Calm   4.0 mph 15% 0.00 in 0.0 W/m2
22:12 77.4 °F 24.4 °F 30.15 in SE 4.9 mph 6.0 mph 14% 0.00 in 0.0 W/m2
22:18 77.4 °F 24.4 °F 30.15 in ESE 4.0 mph 7.0 mph 14% 0.00 in 0.0 W/m2
22:23 77.4 °F 24.4 °F 30.15 in SSE 4.0 mph 5.0 mph 14% 0.00 in 0.0 W/m2
22:24 77.4 °F 24.4 °F 30.15 in ESE 4.0 mph 9.0 mph 14% 0.00 in 0.0 W/m2
22:29 77.4 °F 24.4 °F 30.15 in SE 2.0 mph 3.0 mph 14% 0.00 in 0.0 W/m2
22:34 77.2 °F 24.3 °F 30.15 in SE 2.9 mph 5.0 mph 14% 0.00 in 0.0 W/m2
22:44 76.6 °F 23.9 °F 30.16 in Calm   1.0 mph 14% 0.00 in 0.0 W/m2
22:50 76.6 °F 23.9 °F 30.16 in Calm   1.0 mph 14% 0.00 in 0.0 W/m2
22:55 76.5 °F 23.7 °F 30.16 in Calm   1.0 mph 14% 0.00 in 0.0 W/m2
23:00 76.1 °F 25.2 °F 30.16 in Calm     15% 0.00 in 0.0 W/m2
23:05 75.7 °F 26.4 °F 30.16 in Calm   1.0 mph 16% 0.00 in 0.0 W/m2
23:10 75.2 °F 25.9 °F 30.16 in NW 0.9 mph 1.0 mph 16% 0.00 in 0.0 W/m2
23:15 74.7 °F 25.5 °F 30.16 in SE 0.9 mph 4.0 mph 16% 0.00 in 0.0 W/m2
23:18 74.5 °F 23.7 °F 30.17 in ESE 5.0 mph 5.0 mph 15% 0.00 in 0.0 W/m2
23:23 74.5 °F 23.7 °F 30.17 in Calm   1.0 mph 15% 0.00 in 0.0 W/m2
23:28 74.5 °F 23.7 °F 30.17 in ESE 2.9 mph 3.0 mph 15% 0.00 in 0.0 W/m2
23:30 74.5 °F 23.7 °F 30.17 in ESE 2.9 mph 5.0 mph 15% 0.00 in 0.0 W/m2
23:38 74.7 °F 22.3 °F 30.17 in ESE 2.0 mph 7.0 mph 14% 0.00 in 0.0 W/m2
23:43 74.8 °F 22.5 °F 30.17 in ESE 0.9 mph 2.0 mph 14% 0.00 in 0.0 W/m2
23:50 75.0 °F 20.8 °F 30.17 in East 0.9 mph 4.0 mph 13% 0.00 in 0.0 W/m2
23:55 75.0 °F 20.8 °F 30.17 in ENE 0.9 mph 5.0 mph 13% 0.00 in 0.0 W/m2
23:58 75.0 °F 22.6 °F 30.17 in East 4.0 mph 4.0 mph 14% 0.00 in 0.0 W/m2
Olympia, Windhoek, Namibia
Compliments of Weather Underground - 3.25 mb